• In Österreich
  • Länderverzeichnis
  • Für 7 Tage
  • Wassertemperatur
  • Satellitenkarten
  • Wetterkarte
  • News
  • Widgets
  • user-avatar
    Anmelden

    Stündliche Wetter Kalgoorlie

    Heute, 18 August, Samstag

    Zeit Temperatur Niederschläge Wind Luftdruck Luftfeuchtigkeit
    00:00 +8°C° 0 mm 4 m/S 736 mmHg 62%
    01:00 +8°C° 0 mm 4 m/S 736 mmHg 64%
    02:00 +7°C° 0 mm 4 m/S 736 mmHg 68%
    03:00 +7°C° 0 mm 4 m/S 736 mmHg 69%
    04:00 +6°C° 0 mm 4 m/S 737 mmHg 71%
    05:00 +6°C° 0 mm 4 m/S 737 mmHg 72%
    06:00 +6°C° 0 mm 4 m/S 737 mmHg 69%
    07:00 +7°C° 0 mm 5 m/S 738 mmHg 66%
    08:00 +8°C° 0 mm 6 m/S 738 mmHg 62%
    09:00 +9°C° 0 mm 5 m/S 738 mmHg 56%
    10:00 +12°C° 0 mm 5 m/S 738 mmHg 50%
    11:00 +13°C° 0 mm 5 m/S 738 mmHg 44%
    12:00 +14°C° 0 mm 4 m/S 737 mmHg 41%
    13:00 +15°C° 0 mm 4 m/S 737 mmHg 38%
    14:00 +17°C° 0 mm 3 m/S 737 mmHg 35%
    15:00 +17°C° 0 mm 3 m/S 737 mmHg 35%
    16:00 +17°C° 0 mm 3 m/S 737 mmHg 34%
    17:00 +17°C° 0 mm 3 m/S 737 mmHg 34%
    18:00 +14°C° 0 mm 3 m/S 737 mmHg 36%
    19:00 +13°C° 0 mm 3 m/S 737 mmHg 38%
    20:00 +12°C° 0 mm 4 m/S 738 mmHg 40%
    21:00 +12°C° 0 mm 4 m/S 738 mmHg 42%
    22:00 +11°C° 0 mm 4 m/S 738 mmHg 43%
    23:00 +11°C° 0 mm 4 m/S 738 mmHg 44%

    Morgen, 19 August, Sonntag

    Zeit Temperatur Niederschläge Wind Luftdruck Luftfeuchtigkeit
    00:00 +10°C° 0 mm 4 m/S 738 mmHg 46%
    01:00 +9°C° 0 mm 5 m/S 738 mmHg 48%
    02:00 +9°C° 0 mm 5 m/S 738 mmHg 50%
    03:00 +8°C° 0 mm 5 m/S 738 mmHg 53%
    04:00 +8°C° 0 mm 5 m/S 738 mmHg 56%
    05:00 +7°C° 0 mm 5 m/S 738 mmHg 60%
    06:00 +8°C° 0 mm 6 m/S 738 mmHg 59%
    07:00 +9°C° 0 mm 6 m/S 738 mmHg 58%
    08:00 +9°C° 0 mm 7 m/S 738 mmHg 57%
    09:00 +11°C° 0 mm 7 m/S 738 mmHg 50%
    10:00 +14°C° 0 mm 7 m/S 738 mmHg 42%
    11:00 +16°C° 0 mm 7 m/S 738 mmHg 35%
    12:00 +19°C° 0 mm 6 m/S 737 mmHg 32%
    13:00 +20°C° 0 mm 6 m/S 737 mmHg 29%
    14:00 +21°C° 0 mm 5 m/S 736 mmHg 26%
    15:00 +20°C° 0 mm 4 m/S 736 mmHg 27%
    16:00 +20°C° 0 mm 3 m/S 736 mmHg 28%
    17:00 +20°C° 0 mm 2 m/S 736 mmHg 29%
    18:00 +18°C° 0 mm 2 m/S 736 mmHg 30%
    19:00 +17°C° 0 mm 2 m/S 736 mmHg 31%
    20:00 +16°C° 0 mm 2 m/S 736 mmHg 32%
    21:00 +14°C° 0 mm 3 m/S 736 mmHg 33%
    22:00 +14°C° 0 mm 3 m/S 736 mmHg 33%
    23:00 +14°C° 0 mm 3 m/S 736 mmHg 33%

    übermorgen, 20 August, Montag

    Zeit Temperatur Niederschläge Wind Luftdruck Luftfeuchtigkeit
    00:00 +13°C° 0 mm 3 m/S 736 mmHg 34%
    01:00 +13°C° 0 mm 3 m/S 736 mmHg 35%
    02:00 +12°C° 0 mm 4 m/S 736 mmHg 36%
    03:00 +12°C° 0 mm 3 m/S 736 mmHg 36%
    04:00 +11°C° 0 mm 3 m/S 735 mmHg 37%
    05:00 +11°C° 0 mm 3 m/S 735 mmHg 38%
    06:00 +12°C° 0 mm 4 m/S 735 mmHg 37%
    07:00 +13°C° 0 mm 4 m/S 735 mmHg 35%
    08:00 +14°C° 0 mm 4 m/S 735 mmHg 34%
    09:00 +17°C° 0 mm 4 m/S 735 mmHg 31%
    10:00 +19°C° 0 mm 4 m/S 735 mmHg 27%
    11:00 +22°C° 0 mm 4 m/S 735 mmHg 24%
    12:00 +22°C° 0 mm 4 m/S 734 mmHg 23%
    13:00 +23°C° 0 mm 4 m/S 734 mmHg 21%
    14:00 +25°C° 0 mm 3 m/S 733 mmHg 20%
    15:00 +24°C° 0 mm 3 m/S 733 mmHg 21%
    16:00 +24°C° 0 mm 3 m/S 732 mmHg 22%
    17:00 +23°C° 0 mm 2 m/S 732 mmHg 23%
    18:00 +21°C° 0 mm 3 m/S 732 mmHg 24%
    19:00 +20°C° 0 mm 3 m/S 732 mmHg 25%
    20:00 +19°C° 0 mm 3 m/S 733 mmHg 25%
    21:00 +18°C° 0 mm 4 m/S 732 mmHg 26%
    22:00 +18°C° 0 mm 4 m/S 732 mmHg 26%
    23:00 +17°C° 0 mm 4 m/S 732 mmHg 26%

    21 August, Dienstag

    Zeit Temperatur Niederschläge Wind Luftdruck Luftfeuchtigkeit
    00:00 +16°C° 0 mm 5 m/S 731 mmHg 26%
    01:00 +15°C° 0 mm 5 m/S 731 mmHg 26%
    02:00 +15°C° 0 mm 5 m/S 730 mmHg 27%
    03:00 +14°C° 0 mm 5 m/S 730 mmHg 27%
    04:00 +14°C° 0 mm 5 m/S 729 mmHg 28%
    05:00 +13°C° 0 mm 5 m/S 729 mmHg 28%
    06:00 +14°C° 0 mm 6 m/S 729 mmHg 27%
    07:00 +15°C° 0 mm 7 m/S 729 mmHg 25%
    08:00 +16°C° 0 mm 8 m/S 729 mmHg 24%
    09:00 +18°C° 0 mm 8 m/S 729 mmHg 22%
    10:00 +21°C° 0 mm 9 m/S 729 mmHg 20%
    11:00 +23°C° 0 mm 10 m/S 728 mmHg 18%
    12:00 +26°C° 0 mm 10 m/S 727 mmHg 16%
    13:00 +28°C° 0 mm 11 m/S 726 mmHg 15%
    14:00 +29°C° 0 mm 11 m/S 725 mmHg 14%
    15:00 +28°C° 0 mm 10 m/S 725 mmHg 16%
    16:00 +27°C° 0 mm 9 m/S 725 mmHg 18%
    17:00 +26°C° 0 mm 8 m/S 724 mmHg 21%
    18:00 +24°C° 0 mm 8 m/S 725 mmHg 26%
    19:00 +23°C° 0 mm 8 m/S 726 mmHg 32%
    20:00 +21°C° 0 mm 8 m/S 726 mmHg 37%
    21:00 +20°C° 0 mm 8 m/S 726 mmHg 45%
    22:00 +17°C° 0 mm 8 m/S 727 mmHg 53%
    23:00 +16°C° 0 mm 8 m/S 727 mmHg 60%

    22 August, Mittwoch

    Zeit Temperatur Niederschläge Wind Luftdruck Luftfeuchtigkeit
    00:00 +15°C° 0,1 mm 9 m/S 727 mmHg 64%
    01:00 +13°C° 0,1 mm 9 m/S 727 mmHg 68%
    02:00 +12°C° 0,1 mm 9 m/S 728 mmHg 72%
    03:00 +10°C° 0 mm 9 m/S 728 mmHg 72%
    04:00 +8°C° 0 mm 9 m/S 728 mmHg 72%
    05:00 +7°C° 0 mm 9 m/S 729 mmHg 71%
    06:00 +7°C° 0 mm 9 m/S 730 mmHg 66%
    07:00 +7°C° 0 mm 9 m/S 731 mmHg 61%
    08:00 +8°C° 0 mm 9 m/S 732 mmHg 55%
    09:00 +10°C° 0 mm 9 m/S 732 mmHg 50%
    10:00 +11°C° 0 mm 9 m/S 732 mmHg 44%
    11:00 +12°C° 0 mm 9 m/S 732 mmHg 38%
    12:00 +12°C° 0 mm 10 m/S 732 mmHg 37%
    13:00 +12°C° 0 mm 10 m/S 732 mmHg 36%
    14:00 +13°C° 0 mm 11 m/S 731 mmHg 34%
    15:00 +12°C° 0 mm 10 m/S 732 mmHg 36%
    16:00 +11°C° 0 mm 9 m/S 732 mmHg 38%
    17:00 +11°C° 0 mm 9 m/S 733 mmHg 40%
    18:00 +10°C° 0 mm 7 m/S 734 mmHg 44%
    19:00 +9°C° 0 mm 6 m/S 734 mmHg 47%
    20:00 +8°C° 0 mm 5 m/S 735 mmHg 50%
    21:00 +8°C° 0 mm 5 m/S 735 mmHg 54%
    22:00 +7°C° 0 mm 5 m/S 736 mmHg 58%
    23:00 +7°C° 0 mm 5 m/S 736 mmHg 62%

    23 August, Donnerstag

    Zeit Temperatur Niederschläge Wind Luftdruck Luftfeuchtigkeit
    00:00 +6°C° 0 mm 5 m/S 736 mmHg 66%
    01:00 +6°C° 0 mm 5 m/S 735 mmHg 70%
    02:00 +5°C° 0 mm 5 m/S 735 mmHg 73%
    03:00 +5°C° 0 mm 5 m/S 736 mmHg 77%
    04:00 +5°C° 0 mm 5 m/S 736 mmHg 80%
    05:00 +4°C° 0 mm 4 m/S 736 mmHg 84%
    06:00 +5°C° 0 mm 5 m/S 736 mmHg 81%
    07:00 +6°C° 0 mm 5 m/S 737 mmHg 78%
    08:00 +5°C° 0 mm 6 m/S 737 mmHg 75%
    09:00 +8°C° 0 mm 6 m/S 737 mmHg 67%
    10:00 +10°C° 0 mm 6 m/S 737 mmHg 58%
    11:00 +13°C° 0 mm 6 m/S 737 mmHg 50%
    12:00 +13°C° 0 mm 6 m/S 737 mmHg 49%
    13:00 +14°C° 0 mm 6 m/S 736 mmHg 47%
    14:00 +14°C° 0 mm 6 m/S 736 mmHg 46%
    15:00 +14°C° 0 mm 6 m/S 736 mmHg 48%
    16:00 +13°C° 0 mm 6 m/S 736 mmHg 50%
    17:00 +11°C° 0 mm 6 m/S 736 mmHg 52%
    18:00 +10°C° 0 mm 5 m/S 736 mmHg 55%
    19:00 +10°C° 0 mm 5 m/S 737 mmHg 59%
    20:00 +10°C° 0 mm 4 m/S 737 mmHg 62%
    21:00 +8°C° 0 mm 4 m/S 737 mmHg 66%
    22:00 +9°C° 0 mm 3 m/S 737 mmHg 70%
    23:00 +8°C° 0 mm 3 m/S 737 mmHg 73%
    Mehr zeigen